This demonstration page uses our WeatherBlox Daily Observations layout. Learn more.

Left ArrowRight Arrow

39.51506, -84.39828

Hourly Observations for July 17, 2021

Temp ( °F °C ) Dew Point ( °F °C ) Humidity (%) Winds ( mph kmh ) Pressure ( in mb ) Visibility ( mi km ) Precip ( " mm )
12:15 am 00:15 Cloudy with Thunderstorms 70 21 N/A N/A N N/A 30.00 1016 4 6 N/A
12:35 am 00:35 Cloudy with Rain 70 21 N/A N/A S 5 7 29.99 1016 3 5 0.01 0.25
12:55 am 00:55 Partly Cloudy 70 21 N/A N/A S 5 7 29.99 1016 10 16 0.02 0.51
1:15 am 01:15 Cloudy with Nearby Thunderstorms 70 21 N/A N/A S 5 7 29.99 1016 7 11 N/A
1:35 am 01:35 Cloudy with Rain 70 21 N/A N/A S 6 9 29.99 1016 5 8 0.01 0.25
1:55 am 01:55 Cloudy with Rain 70 21 N/A N/A SSE 7 11 29.98 1015 7 11 0.01 0.25
2:15 am 02:15 Cloudy with Light Rain 70 21 N/A N/A S 7 11 29.96 1015 7 11 N/A
2:35 am 02:35 Cloudy 70 21 N/A N/A S 6 9 29.95 1014 10 16 0.01 0.25
2:55 am 02:55 Cloudy with Light Rain 70 21 N/A N/A S 3 6 29.96 1015 10 16 0.02 0.51
3:15 am 03:15 Cloudy 70 21 N/A N/A S 5 7 29.95 1014 10 16 N/A
3:35 am 03:35 Cloudy 70 21 N/A N/A SSW 5 7 29.95 1014 10 16 0.01 0.25
3:55 am 03:55 Cloudy with Light Rain 70 21 N/A N/A SSW 7 11 29.96 1015 10 16 0.02 0.51
4:15 am 04:15 Cloudy with Light Rain 70 21 N/A N/A SSW 7 11 29.97 1015 10 16 0.01 0.25
4:35 am 04:35 Cloudy with Light Rain 70 21 N/A N/A SSW 8 13 29.96 1015 10 16 0.03 0.76
4:55 am 04:55 Cloudy with Light Rain 70 21 N/A N/A SSW 7 11 29.96 1015 10 16 0.04 1.02
5:15 am 05:15 Cloudy with Light Rain 70 21 N/A N/A SSW 6 9 29.95 1014 10 16 0.01 0.25
5:35 am 05:35 Cloudy 72 22 N/A N/A SSW 6 9 29.96 1015 10 16 0.02 0.51
5:55 am 05:55 Cloudy 72 22 N/A N/A SW 7 11 29.96 1015 10 16 0.03 0.76
6:15 am 06:15 Cloudy 72 22 N/A N/A WSW 10 17 29.97 1015 10 16 0.01 0.25
6:35 am 06:35 Cloudy with Light Rain 70 21 N/A N/A SW 9 15 29.97 1015 2 3 0.02 0.51
6:55 am 06:55 Cloudy 72 22 N/A N/A SW 7 11 29.98 1015 10 16 0.03 0.76
7:15 am 07:15 Cloudy with Light Rain 72 22 N/A N/A WSW 7 11 29.99 1016 4 6 N/A
7:35 am 07:35 Cloudy with Light Rain 72 22 N/A N/A WSW 8 13 30.00 1016 4 6 0.01 0.25
7:55 am 07:55 Cloudy with Drizzle 72 22 N/A N/A WSW 7 11 30.00 1016 10 16 0.02 0.51
8:15 am 08:15 Mostly Cloudy 72 22 N/A N/A WSW 8 13 30.00 1016 10 16 0.01 0.25
8:35 am 08:35 Mostly Cloudy 72 22 N/A N/A W 8 13 30.01 1016 10 16 0.02 0.51
8:55 am 08:55 Cloudy 72 22 N/A N/A W 7 11 30.01 1016 10 16 0.03 0.76
9:15 am 09:15 Cloudy 73 22.5 72 22.4 99 99 W 6 9 30.02 1017 10 16 0.01 0.25
9:35 am 09:35 Cloudy 73 22.6 72 22.3 98 98 W 7 11 30.03 1017 10 16 0.02 0.51
9:55 am 09:55 Cloudy 73 22.9 73 22.6 98 98 WSW 8 13 30.03 1017 10 16 0.03 0.76
10:15 am 10:15 Cloudy 74 23.5 72 22.4 94 94 WNW 8 13 30.03 1017 10 16 0.01 0.25
10:35 am 10:35 Cloudy 73 22.8 71 21.4 92 92 NW 6 9 30.04 1017 10 16 0.02 0.51
10:55 am 10:55 Cloudy 74 23.4 71 21.7 90 90 NW 9 15 30.04 1017 10 16 0.03 0.76
11:15 am 11:15 Mostly Cloudy 76 24.5 71 21.7 84 84 NW 8 13 30.03 1017 10 16 0.01 0.25
11:35 am 11:35 Cloudy 77 24.9 71 21.4 81 81 NNW 12 19 30.03 1017 10 16 0.02 0.51
11:55 am 11:55 Cloudy 77 25.1 70 21.2 79 79 NW 8 13 30.03 1017 10 16 0.03 0.76
12:15 pm 12:15 Cloudy 78 25.3 70 21 77 77 NW 10 17 30.04 1017 10 16 N/A
12:35 pm 12:35 Cloudy 77 25 70 21.3 80 80 NNW 9 15 30.04 1017 10 16 0.01 0.25
12:55 pm 12:55 Partly Cloudy 79 26.2 71 21.4 75 75 NW 17 28 30.04 1017 10 16 0.02 0.51
1:15 pm 13:15 Partly Cloudy 80 26.5 71 21.4 74 74 N 9 15 30.04 1017 10 16 0.01 0.25
1:35 pm 13:35 Mostly Cloudy 79 26.1 70 21.3 75 75 N 9 15 30.04 1017 10 16 0.02 0.51
1:55 pm 13:55 Mostly Cloudy 79 26 70 21 74 74 N 13 20 30.04 1017 10 16 0.02 0.51
2:15 pm 14:15 Cloudy 78 25.8 71 21.4 77 77 NNW 8 13 30.05 1018 10 16 0.01 0.25
2:35 pm 14:35 Cloudy 79 26.3 70 21.2 74 74 NNW 10 17 30.04 1017 10 16 0.01 0.25
2:55 pm 14:55 Partly Cloudy 81 27.2 69 20.8 68 68 N 7 11 30.04 1017 10 16 0.02 0.51
3:15 pm 15:15 Mostly Cloudy 81 27.3 70 20.9 68 68 N 3 6 30.04 1017 10 16 N/A
3:35 pm 15:35 Partly Cloudy 82 27.7 70 21.2 68 68 NW 5 7 30.04 1017 10 16 0.01 0.25
3:55 pm 15:55 Mostly Cloudy 80 26.9 70 21.3 71 71 NW 9 15 30.05 1018 10 16 0.01 0.25
4:15 pm 16:15 Sunny 82 27.9 71 21.8 69 69 NW 5 7 30.04 1017 10 16 0.01 0.25
4:35 pm 16:35 Partly Cloudy 83 28.6 70 21 64 64 NW 7 11 30.04 1017 10 16 0.01 0.25
4:55 pm 16:55 Partly Cloudy 83 28.6 70 20.9 63 63 NW 10 17 30.04 1017 10 16 0.01 0.25
5:15 pm 17:15 Partly Cloudy 84 28.7 69 20.5 61 61 NW 12 19 30.04 1017 10 16 0.01 0.25
5:35 pm 17:35 Partly Cloudy 83 28.5 69 20.6 62 62 NNE 8 13 30.04 1017 10 16 0.01 0.25
5:55 pm 17:55 Mostly Cloudy 83 28.5 69 20.4 62 62 NNW 10 17 30.04 1017 10 16 0.01 0.25
6:15 pm 18:15 Mostly Cloudy 81 27.4 69 20.7 67 67 NNW 7 11 30.05 1018 10 16 N/A
6:35 pm 18:35 Partly Cloudy 82 27.6 71 21.6 70 70 NNE 5 7 30.05 1018 10 16 N/A
6:55 pm 18:55 Sunny 82 27.8 70 21.2 67 67 NNW 7 11 30.04 1017 10 16 N/A
7:15 pm 19:15 Partly Cloudy 81 27.4 70 20.9 68 68 NNE 7 11 30.05 1018 10 16 N/A
7:35 pm 19:35 Mostly Cloudy 79 26.3 70 21.1 73 73 N 6 9 30.05 1018 7 11 0.01 0.25
7:55 pm 19:55 Sunny 79 26.2 70 21.1 74 74 NE 8 13 30.05 1018 7 11 0.01 0.25
8:15 pm 20:15 Mostly Cloudy 78 25.7 69 20.7 74 74 NNE 7 11 30.06 1018 10 16 N/A
8:35 pm 20:35 Partly Cloudy 78 25.4 69 20.6 75 75 NE 7 11 30.06 1018 10 16 N/A
8:55 pm 20:55 Sunny 76 24.5 69 20.8 80 80 NE 5 7 30.06 1018 10 16 N/A
9:15 pm 21:15 Clear with Mist and Fog 74 23.4 70 21 86 86 NNE 5 7 30.08 1019 7 11 N/A
9:35 pm 21:35 Clear 73 22.7 71 21.5 93 93 NE 3 6 30.08 1019 10 16 0.01 0.25
9:55 pm 21:55 Clear with Mist and Fog 72 22 71 21.4 96 96 N 3 6 30.10 1019 4 6 0.01 0.25
10:15 pm 22:15 Clear 70 21 70 21 100 100 NNE 5 7 30.11 1020 10 16 N/A
10:35 pm 22:35 Clear 70 21.1 70 21.1 100 100 N N/A 30.12 1020 10 16 N/A
10:55 pm 22:55 Clear 70 21 70 21 100 100 N 3 6 30.12 1020 10 16 N/A
11:35 pm 23:35 Clear 68 20 N/A N/A N 5 7 30.13 1020 10 16 N/A
11:55 pm 23:55 Clear 69 20.5 69 20.4 99 99 N N/A 30.14 1021 10 16 N/A

Powered by AerisWeather